Theta_e
312 311 311 309 309 311 309 309 309 309 311 308 305 306 308 307 305 311 314 315 317 320 318 326 327 332 341 348 351 354 368 368 364 368 369 360 361 357 354 356 355 353 345 344 343
313 312 311 309 311 309 309 309 309 309 309 308 306 305 308 310 315 316 318 316 317 319 327 331 337 340 343 349 353 360 368 362 359 362 365 360 359 360 360 360 354 346 344 343 343
312 310 311 312 312 313 310 308 310 309 308 307 306 306 308 314 323 322 320 319 315 315 333 337 340 339 346 348 355 361 364 356 357 359 361 359 358 356 360 361 349 347 345 344 343
311 310 310 311 312 312 313 312 310 308 307 306 306 307 308 320 333 328 320 317 312 318 336 337 335 340 345 350 355 362 359 354 355 357 357 359 355 357 357 359 350 345 343 343 343
311 312 313 313 314 315 314 314 311 310 307 305 305 308 318 323 319 329 320 318 312 322 337 336 332 338 343 346 355 356 356 354 354 354 357 355 356 355 359 357 352 345 344 343 343
313 313 313 313 314 314 315 314 311 308 306 305 305 309 319 323 326 328 322 317 316 324 336 333 329 334 341 347 355 354 357 351 351 355 356 358 355 356 356 354 351 346 345 343 342
312 313 314 314 314 315 314 312 306 305 305 305 306 317 323 322 326 326 322 319 319 327 333 329 328 332 335 337 346 356 359 350 348 357 358 356 360 361 356 353 353 348 345 343 342
313 313 314 314 314 313 312 307 311 309 306 305 307 320 326 322 326 324 322 320 320 327 330 328 328 329 331 335 341 353 350 352 348 357 356 356 368 359 354 352 353 347 345 343 342
314 313 314 314 313 310 307 311 311 308 305 305 317 324 324 326 325 325 325 323 324 329 328 326 326 327 329 335 342 349 356 353 352 355 358 359 363 357 355 352 351 348 345 343 343
314 312 311 311 309 308 311 316 309 311 311 317 323 325 324 327 323 326 326 325 326 328 326 325 326 327 329 337 344 347 351 353 356 359 358 361 363 358 356 351 350 348 346 345 344
313 310 309 309 310 310 315 321 325 329 321 322 323 325 327 325 324 326 325 324 325 326 327 326 325 327 329 335 340 342 345 352 351 356 359 362 362 358 356 352 350 349 348 346 345
310 308 308 310 311 310 314 324 320 320 322 322 322 320 324 324 325 324 324 324 324 325 326 325 324 327 329 331 335 340 341 353 350 346 356 362 363 359 358 356 354 353 349 349 346
311 307 308 311 312 312 319 320 317 318 321 324 322 320 326 326 325 325 323 324 324 325 326 326 324 325 327 328 330 335 339 350 352 348 351 358 367 362 358 359 355 352 351 348 348
313 309 307 311 313 319 321 318 317 318 323 324 322 320 323 326 325 324 325 323 324 324 325 326 326 325 327 327 329 333 339 345 351 341 353 353 372 364 363 362 359 356 354 352 349
314 313 311 308 316 317 318 317 317 318 328 321 320 321 322 323 324 324 324 323 327 323 324 326 326 326 326 327 330 334 340 343 344 341 340 343 361 362 344 361 360 358 355 352 349
315 313 313 316 314 319 319 318 318 321 326 320 320 322 323 322 323 325 325 326 327 325 324 326 326 326 328 328 334 335 335 340 341 340 342 345 346 366 355 351 358 356 354 353 352
315 315 313 316 321 320 319 320 322 323 325 323 321 321 322 322 323 325 325 328 330 330 326 326 326 326 327 329 332 333 335 343 342 340 339 342 345 362 351 350 347 360 356 354 353
315 316 316 317 321 320 321 324 331 327 325 324 320 320 321 322 322 326 325 329 328 329 329 326 331 326 328 330 333 332 337 340 342 339 337 336 354 354 344 354 353 353 353 351 349
314 318 319 322 322 319 323 328 330 326 325 321 319 320 320 320 323 325 326 326 326 329 332 328 329 327 331 333 335 332 336 335 336 335 336 345 348 348 352 352 352 353 355 357 353
316 321 324 320 320 321 325 326 325 322 319 320 321 320 321 322 323 325 325 327 326 327 327 329 331 330 329 329 332 333 332 335 336 339 338 348 351 356 354 353 351 351 350 352 353
318 324 323 321 319 325 330 327 320 319 319 323 321 320 321 324 324 328 327 325 324 325 325 327 329 327 326 328 330 331 332 333 334 334 336 348 350 348 353 351 350 349 348 348 346
323 325 320 317 321 324 326 321 314 318 318 318 322 321 321 323 325 326 327 323 321 322 326 327 327 328 325 324 325 329 332 332 335 339 342 353 355 346 348 348 347 345 345 345 341
325 320 318 319 326 325 319 318 319 320 321 319 320 321 321 321 323 324 323 319 320 322 325 325 327 329 327 325 324 326 328 329 331 333 342 341 348 346 347 346 344 342 340 341 341
325 321 319 319 320 320 320 319 318 317 320 321 321 319 321 324 321 322 321 320 320 319 325 324 323 328 329 327 325 325 327 328 329 332 335 345 347 348 346 345 342 340 338 337 338
323 317 321 321 319 319 319 318 318 319 318 320 321 322 322 323 321 324 321 320 320 319 320 321 323 325 327 323 324 324 325 326 327 329 344 347 346 348 344 342 341 339 339 338 338
322 320 318 319 319 319 315 317 318 317 319 318 321 320 321 327 326 324 321 321 320 321 321 321 322 324 324 322 321 324 323 323 324 325 333 342 346 342 340 339 339 338 336 336 335
320 319 322 317 320 318 316 316 316 317 315 317 318 319 322 322 321 322 322 323 324 324 322 322 322 322 325 323 322 321 322 321 322 324 338 344 341 338 339 338 337 335 334 333 331
Wind_Speed
16 16 16 16 15 15 15 15 14 14 14 13 13 13 10 10 13 8 12 12 17 13 12 13 17 21 18 13 12 4 3 5 7 9 12 10 8 3 5 2 5 7 24 25 29
15 15 16 16 16 15 16 15 15 15 15 14 12 11 11 8 11 21 17 16 12 15 17 21 18 17 12 15 6 2 3 10 11 14 15 14 11 9 4 7 8 24 28 30 27
16 15 16 16 16 16 15 15 16 15 15 14 12 10 9 7 11 6 23 25 16 16 21 21 16 15 15 10 13 8 3 7 15 15 17 16 13 6 12 6 18 26 27 24 25
17 17 18 17 17 16 17 16 16 16 14 13 11 9 8 7 2 5 14 23 14 19 21 20 17 16 16 16 11 5 16 4 13 18 15 14 15 9 5 2 13 23 25 22 20
18 20 20 19 19 18 17 17 17 16 14 11 9 7 6 8 13 6 10 16 15 20 22 19 18 16 16 9 6 2 3 14 12 17 16 15 15 12 11 7 3 23 22 21 18
20 19 20 19 20 19 18 18 17 16 13 10 6 5 6 11 4 6 11 14 18 23 22 20 13 16 16 8 12 4 15 10 17 17 17 16 16 12 13 10 14 23 22 20 18
18 18 18 19 20 20 19 18 15 13 10 8 6 5 12 15 3 4 12 16 20 24 19 21 19 16 9 13 13 25 22 10 9 22 16 21 11 13 11 12 17 20 20 18 17
19 20 20 20 19 19 18 14 9 9 7 6 6 8 7 14 6 8 11 15 19 22 22 17 17 13 17 11 11 13 12 6 10 19 17 11 10 14 9 14 18 21 20 18 17
20 20 19 19 18 15 11 2 2 1 5 8 5 10 9 6 13 12 15 18 21 19 19 14 7 13 15 15 11 12 13 16 14 18 24 8 16 15 6 14 19 19 17 18 16
20 17 17 15 14 10 2 2 3 7 5 6 13 9 12 12 15 15 14 15 18 15 14 8 7 14 16 14 15 17 20 13 12 17 21 11 17 18 17 20 17 15 15 15 16
20 15 11 11 10 3 1 3 5 6 14 11 5 13 13 13 16 14 16 15 16 13 15 14 12 17 22 20 20 19 18 16 2 13 14 18 22 18 19 15 16 12 10 14 13
15 12 8 6 4 5 7 7 9 9 8 21 17 17 8 20 14 15 18 14 14 16 18 11 18 18 19 19 21 23 16 18 13 8 10 21 17 21 21 18 14 13 15 11 12
13 8 7 7 7 9 13 13 8 8 8 12 16 10 6 14 14 17 17 17 16 18 20 18 15 21 19 18 22 22 18 16 7 8 11 13 15 20 20 19 22 17 13 16 13
11 7 7 7 8 16 18 3 9 5 6 15 16 12 15 14 14 18 21 17 10 17 20 20 18 19 17 20 17 19 12 13 12 16 13 24 9 19 22 17 18 17 13 13 17
12 9 8 9 14 12 10 9 9 7 5 9 14 8 14 16 14 17 21 21 14 18 16 19 17 17 17 18 18 16 17 24 25 15 15 17 8 3 13 17 17 19 17 18 15
12 9 8 10 11 12 10 9 9 6 2 6 9 10 15 16 22 20 16 20 15 17 21 17 15 13 12 15 13 22 14 13 15 10 13 13 11 13 6 9 16 18 15 18 18
14 14 14 12 11 12 9 8 6 6 9 8 12 13 18 17 16 17 18 20 15 13 15 18 20 12 13 17 19 20 13 10 10 10 12 20 15 9 16 6 28 20 20 17 16
16 16 18 21 12 11 7 9 6 13 9 24 5 11 15 19 15 19 18 15 19 20 13 14 12 17 15 20 16 16 19 12 16 13 13 16 10 10 14 24 6 13 9 9 18
17 15 11 18 15 5 7 2 3 7 16 11 8 2 13 18 9 16 18 17 18 9 4 18 12 17 13 15 6 16 17 17 16 18 15 8 19 20 17 13 9 9 12 10 25
11 17 25 2 4 1 8 5 11 11 4 6 5 3 8 14 11 17 20 7 11 8 2 12 8 16 11 4 7 16 12 17 15 15 14 14 19 17 18 11 6 8 11 12 19
7 6 9 6 8 6 1 9 12 1 6 5 2 4 9 10 11 13 9 3 2 7 4 16 12 10 12 14 14 10 12 14 17 14 11 7 6 18 19 13 9 9 10 9 14
16 12 3 6 6 6 12 4 3 5 11 6 2 6 9 1 8 5 4 7 6 7 5 13 8 11 15 13 18 21 14 16 12 17 6 6 3 6 16 13 12 10 12 12 15
5 4 3 8 4 7 7 8 10 5 2 6 2 2 4 3 3 13 14 0 5 3 4 10 8 5 13 5 6 9 16 15 15 16 5 9 7 13 13 16 12 12 14 11 14
6 2 4 1 5 4 2 5 8 3 2 2 6 3 7 2 8 6 10 3 1 5 7 6 9 9 5 5 15 17 16 14 12 10 6 16 17 19 16 17 12 14 15 14 14
4 5 5 8 9 10 9 5 3 6 3 3 2 9 6 4 7 13 6 6 5 3 4 5 7 5 12 9 12 15 18 12 10 14 12 15 20 21 17 17 13 13 15 17 16
6 3 2 3 1 3 3 8 9 8 10 5 1 4 7 12 6 10 6 5 7 6 6 6 7 6 10 1 10 7 5 7 7 13 9 21 9 15 18 19 14 13 14 14 15
10 3 7 3 3 5 8 7 7 3 5 6 6 6 1 9 11 12 9 11 7 3 4 6 6 9 10 7 4 7 5 6 9 9 18 17 10 13 19 15 14 14 13 13 14
Wind_Direction
336 335 333 329 330 330 325 323 321 316 317 316 319 316 319 321 306 265 244 227 230 242 218 202 204 218 215 227 192 145 273 2 30 146 132 130 117 126 311 318 291 176 147 141 152
335 334 334 331 329 324 322 319 319 315 312 312 313 318 314 334 286 263 238 237 230 219 204 202 203 205 218 229 213 180 264 42 71 117 133 117 103 106 120 264 159 125 132 146 155
332 330 329 328 326 322 317 312 312 311 308 305 311 311 311 335 277 251 215 221 219 214 205 216 201 209 225 194 228 148 275 96 110 114 129 132 132 140 152 195 141 135 141 156 156
328 327 325 324 321 319 315 312 309 306 301 300 303 304 307 291 279 74 171 201 210 197 217 228 214 210 229 209 209 117 230 141 112 138 133 146 144 142 110 270 133 138 146 155 165
327 325 322 320 318 315 312 308 305 300 294 290 294 295 308 226 252 151 174 200 192 192 216 222 217 210 230 204 163 300 233 217 128 112 126 132 151 133 116 236 236 142 156 157 163
322 319 318 318 315 312 308 305 300 294 287 279 271 278 256 254 35 139 170 176 187 192 215 222 219 220 237 184 163 114 262 251 148 148 123 135 141 136 138 155 163 153 163 162 162
321 318 316 314 312 308 303 300 299 288 274 257 236 242 264 242 353 152 181 187 194 192 218 216 223 228 256 261 202 183 225 206 187 129 127 124 146 126 134 152 173 163 165 167 167
324 319 315 312 310 304 302 308 294 279 255 229 210 233 256 219 248 188 180 188 196 205 231 212 232 262 242 263 238 214 227 203 181 142 152 160 125 137 141 153 158 158 167 168 167
325 321 317 312 310 308 313 311 331 178 186 189 198 225 245 155 213 197 187 184 190 213 224 220 247 240 237 249 223 208 225 186 186 141 158 137 135 149 168 165 160 168 166 165 164
327 324 320 322 323 323 298 288 106 111 145 208 260 221 241 201 190 182 194 191 188 199 207 197 219 231 233 222 214 205 227 181 162 285 108 133 133 152 167 171 169 171 169 164 165
328 330 341 340 338 285 35 245 202 193 213 222 202 229 141 185 171 181 179 185 197 198 202 205 217 214 214 213 234 217 218 180 11 131 158 143 140 156 156 164 166 177 171 161 166
338 335 341 336 341 249 254 256 33 328 281 226 263 225 207 160 167 189 175 188 194 198 211 181 221 218 230 224 234 255 258 127 155 93 40 137 160 163 159 171 185 204 174 175 172
340 330 316 308 284 262 234 294 311 306 274 229 213 213 213 164 191 182 186 199 198 208 207 219 214 235 211 226 224 238 242 167 168 109 238 148 195 160 181 178 176 191 189 186 196
328 326 295 295 290 272 236 324 300 327 271 170 194 215 209 205 207 179 193 207 186 219 227 233 236 201 224 232 221 226 235 122 131 183 176 187 144 179 168 182 169 181 186 184 203
322 315 297 274 307 297 352 303 327 273 268 126 175 183 186 212 200 179 193 219 231 217 222 220 229 203 223 222 214 234 168 181 209 213 215 197 112 133 29 173 162 174 183 195 214
309 304 296 270 249 254 306 304 259 236 318 136 135 176 189 202 225 163 191 234 240 227 221 239 221 219 217 235 223 239 269 160 244 220 231 206 277 157 170 259 180 172 194 194 198
306 274 269 285 287 329 321 267 227 266 339 335 183 195 206 200 210 163 192 212 227 210 208 226 225 207 216 217 232 228 238 199 210 220 239 192 204 106 107 266 256 179 182 189 204
305 279 268 264 283 291 281 260 10 356 308 250 286 181 223 199 205 173 193 205 226 227 180 211 199 206 203 218 212 216 231 211 205 220 230 249 145 172 163 151 290 109 152 62 305
307 278 252 248 236 311 265 76 210 168 257 337 128 228 228 295 166 180 197 215 217 224 19 198 217 184 208 230 324 200 240 251 222 228 230 113 109 152 138 100 89 90 51 159 217
308 271 244 196 248 222 33 355 216 245 273 290 287 52 324 282 194 202 200 95 345 98 152 288 303 163 185 308 242 273 230 239 247 264 253 137 157 152 144 121 102 71 50 16 30
263 254 111 269 257 97 26 234 108 184 89 350 243 111 313 325 312 352 49 109 279 340 242 284 148 184 197 211 226 219 247 250 262 255 235 171 59 133 120 127 125 96 73 46 53
281 259 48 286 283 343 194 66 276 96 108 316 89 236 264 249 53 126 169 350 343 301 285 284 304 164 193 215 223 247 239 234 240 249 77 97 329 9 115 117 106 97 78 66 76
267 16 31 256 111 270 68 75 25 108 341 194 226 147 275 276 125 236 164 113 355 17 18 334 244 213 160 181 231 235 240 265 268 265 173 154 150 156 120 108 93 89 83 66 72
283 258 107 14 341 54 67 74 118 39 53 348 332 220 165 318 236 276 145 158 358 24 317 300 292 16 345 350 207 215 235 237 265 279 314 115 149 121 122 111 107 98 91 85 79
269 39 348 12 36 32 21 6 17 96 131 266 196 295 26 216 200 248 262 121 241 61 300 306 296 331 178 310 328 205 222 225 244 265 78 137 154 139 130 115 119 101 94 90 87
326 2 122 90 250 169 103 23 48 48 339 94 302 301 271 114 347 302 200 201 191 175 237 258 289 321 282 171 325 350 85 27 243 266 133 71 109 112 129 133 124 113 99 92 85
356 329 279 139 253 43 36 39 60 26 63 29 341 291 258 39 351 336 8 341 74 289 227 278 270 273 254 240 230 271 249 185 263 288 130 141 170 132 144 126 122 117 106 95 84